Mount Sterling, KY

10:10 PM EDT on October 14, 2019 (GMT -0400)
Mount Sterling-Montgomery County

Weather History for KIOB - August, 2019

Change the Weather History Date:

Monday, August 19, 2019

  Actual Average Record
Temperature  
Mean Temperature 80 °F -  
Max Temperature 95 °F 85 °F 86 °F (2014)
Min Temperature 68 °F 64 °F 60 °F (2013)
Cooling Degree Days 16    
Growing Degree Days 30 (Base 50)    
Moisture  
Dew Point 68 °F    
Average Humidity 72    
Maximum Humidity 100    
Minimum Humidity 41    
Precipitation  
Precipitation 0.00 in - - ()
Sea Level Pressure  
Sea Level Pressure 30.07 in    
Wind  
Wind Speed 2 mph ()    
Max Wind Speed 7 mph    
Max Gust Speed -    
Visibility 10.0 miles    
Events      
Averages and records for this station are not official NWS values.
T = Trace of Precipitation, MM = Missing Value Source: Averaged Metar Reports

Daily Weather History Graph

Daily Weather History Graph

Search for Another Location

Airport or City:

Astronomy

Aug. 19, 2019 Rise Set
Actual Time 6:54 AM EDT 8:24 PM EDT
Civil Twilight 6:26 AM EDT 8:51 PM EDT
Nautical Twilight 5:52 AM EDT 9:25 PM EDT
Astronomical Twilight 5:17 AM EDT 10:00 PM EDT
Moon 10:48 PM EDT (8/19) 10:31 AM EDT (8/19)
Length of Visible Light 14h 25m
Length of Day
13h 29m
Waning Gibbous, 85% of the Moon is Illuminated
Aug 19
Waning Gibbous
Aug 23
Last Quarter
Aug 30
New
Sep 5
First Quarter
Sep 14
Full

Hourly Weather History & Observations

Time (EDT) Temp. Heat Index Dew Point Humidity Pressure Visibility Wind Dir Wind Speed Gust Speed Precip Events Conditions
12:15 AM 75.2 °F - 68.0 °F 78% 30.02 in 10.0 mi Calm Calm - N/A   Clear
12:35 AM 73.4 °F - 68.0 °F 83% 30.03 in 10.0 mi West 3.5 mph - N/A   Clear
12:55 AM 73.4 °F - 68.0 °F 83% 30.03 in 10.0 mi West 3.5 mph - N/A   Clear
1:15 AM 73.4 °F - 68.0 °F 83% 30.03 in 10.0 mi Calm Calm - N/A   Clear
1:35 AM 71.6 °F - 68.0 °F 88% 30.04 in 10.0 mi West 4.6 mph - N/A   Clear
1:55 AM 75.2 °F - 68.0 °F 78% 30.04 in 10.0 mi Calm Calm - N/A   Clear
2:15 AM 73.4 °F - 68.0 °F 83% 30.04 in 10.0 mi NW 3.5 mph - N/A   Clear
2:35 AM 77.0 °F - 68.0 °F 74% 30.04 in 10.0 mi NNW 3.5 mph - N/A   Clear
2:55 AM 77.0 °F - 68.0 °F 74% 30.03 in 10.0 mi Calm Calm - N/A   Clear
3:15 AM 75.2 °F - 68.0 °F 78% 30.03 in 10.0 mi Calm Calm - N/A   Clear
3:35 AM 71.6 °F - 68.0 °F 88% 30.03 in 10.0 mi Calm Calm - N/A   Clear
3:55 AM 71.6 °F - 68.0 °F 88% 30.03 in 10.0 mi Calm Calm - N/A   Clear
4:15 AM 71.6 °F - 68.0 °F 88% 30.02 in 10.0 mi Calm Calm - N/A   Clear
4:35 AM 71.6 °F - 69.8 °F 94% 30.03 in 10.0 mi Calm Calm - N/A   Clear
4:55 AM 71.6 °F - 69.8 °F 94% 30.03 in 10.0 mi Calm Calm - N/A   Clear
5:15 AM 71.6 °F - 68.0 °F 88% 30.04 in 10.0 mi Calm Calm - N/A   Clear
5:55 AM 71.6 °F - 68.0 °F 88% 30.05 in 10.0 mi Calm Calm - N/A   Clear
6:15 AM 71.6 °F - 68.0 °F 88% 30.06 in 10.0 mi Calm Calm - N/A   Clear
6:35 AM 69.8 °F - 68.0 °F 94% 30.06 in 10.0 mi Calm Calm - N/A   Clear
6:55 AM 71.6 °F - 68.0 °F 88% 30.07 in 10.0 mi Calm Calm - N/A   Clear
7:15 AM 69.8 °F - 68.0 °F 94% 30.07 in 10.0 mi Calm Calm - N/A   Clear
7:35 AM 68.0 °F - 68.0 °F 100% 30.08 in 10.0 mi Calm Calm - N/A   Clear
7:55 AM 69.8 °F - 68.0 °F 94% 30.08 in 10.0 mi Calm Calm - N/A   Clear
8:15 AM 69.8 °F - 68.0 °F 94% 30.08 in 10.0 mi Calm Calm - N/A   Clear
8:35 AM 71.6 °F - 69.8 °F 94% 30.09 in 10.0 mi Calm Calm - N/A   Clear
8:55 AM 78.8 °F - 68.0 °F 69% 30.09 in 10.0 mi SSE 3.5 mph - N/A   Clear
9:15 AM 80.6 °F 83.2 °F 68.0 °F 65% 30.09 in 10.0 mi SSE 5.8 mph - N/A   Clear
9:35 AM 80.6 °F 83.2 °F 68.0 °F 65% 30.09 in 10.0 mi SSE 5.8 mph - N/A   Clear
9:55 AM 82.4 °F 86.3 °F 69.8 °F 66% 30.09 in 10.0 mi South 4.6 mph - N/A   Clear
10:15 AM 84.2 °F 88.4 °F 69.8 °F 62% 30.10 in 10.0 mi South 5.8 mph - N/A   Clear
10:35 AM 84.2 °F 88.4 °F 69.8 °F 62% 30.10 in 10.0 mi SSW 5.8 mph - N/A   Clear
10:55 AM 86.0 °F 90.4 °F 69.8 °F 58% 30.11 in 10.0 mi SSW 5.8 mph - N/A   Clear
11:15 AM 86.0 °F 90.4 °F 69.8 °F 58% 30.11 in 10.0 mi SSW 6.9 mph - N/A   Clear
11:35 AM 87.8 °F 92.6 °F 69.8 °F 55% 30.11 in 10.0 mi SSW 3.5 mph - N/A   Clear
11:55 AM 87.8 °F 91.4 °F 68.0 °F 52% 30.11 in 10.0 mi South 3.5 mph - N/A   Clear
12:15 PM 87.8 °F 91.4 °F 68.0 °F 52% 30.10 in 10.0 mi Calm Calm - N/A   Clear
12:55 PM 89.6 °F 94.7 °F 69.8 °F 52% 30.10 in 10.0 mi WSW 4.6 mph - N/A   Clear
1:15 PM 91.4 °F 95.4 °F 68.0 °F 46% 30.10 in 10.0 mi Calm Calm - N/A   Clear
1:35 PM 89.6 °F 93.4 °F 68.0 °F 49% 30.10 in 10.0 mi Calm Calm - N/A   Mostly Cloudy
1:55 PM 91.4 °F 95.4 °F 68.0 °F 46% 30.09 in 10.0 mi South 3.5 mph - N/A   Mostly Cloudy
2:15 PM 89.6 °F 94.7 °F 69.8 °F 52% 30.09 in 10.0 mi West 3.5 mph - N/A   Scattered Clouds
2:35 PM 91.4 °F 96.8 °F 69.8 °F 49% 30.08 in 10.0 mi SSW 5.8 mph - N/A   Clear
2:55 PM 91.4 °F 95.4 °F 68.0 °F 46% 30.08 in 10.0 mi SSW 5.8 mph - N/A   Clear
3:15 PM 91.4 °F 94.0 °F 66.2 °F 43% 30.07 in 10.0 mi Calm Calm - N/A   Scattered Clouds
3:35 PM 93.2 °F 97.7 °F 68.0 °F 44% 30.06 in 10.0 mi WSW 5.8 mph - N/A   Scattered Clouds
3:55 PM 95.0 °F 99.5 °F 68.0 °F 41% 30.06 in 10.0 mi Calm Calm - N/A   Scattered Clouds